Location: American Girl Mine
(37.9225°N, 107.6915°W)
Time: 07:13:40
(UTC+00:00)

Daily predictions for brighter satellites

Satellite Brightness Start Highest point End
(mag) Time Altitude Azimuth Time Altitude Azimuth Time Altitude Azimuth
Cosmos 2237 Rocket 3.6 12:05:01 10° S 12:10:12 38° ESE 12:15:25 10° NE
Cosmos 2333 Rocket 2.8 12:13:27 41° NNW 12:13:27 41° NNW 12:17:27 10° NNE
GPS 2-04 Rocket1 3.7 12:13:17 42° SSE 12:13:17 42° SSE 12:16:29 10° ESE
deb Chang Zheng 4 4.0 12:09:44 10° NNE 12:13:57 60° ESE 12:18:06 10° S
Cosmos 2219 Rocket 2.4 12:17:16 49° NNW 12:17:16 49° NNW 12:21:49 10° NNE
Cosmos 1953 3.6 12:19:50 10° SSE 12:23:34 40° E 12:27:18 10° NNE
FALCON 9 DEB 3.8 12:25:36 52° E 12:25:36 52° E 12:28:24 10° NE
COSMOS 2428 2.8 12:30:54 46° W 12:31:42 50° WNW 12:37:14 10° NNE
Cosmos 1461 3.0 12:30:57 52° SW 12:32:01 73° WNW 12:36:47 10° NNE
Cosmos 1892 Rocket 3.4 12:31:18 30° N 12:33:25 85° W 12:37:47 10° S
Cosmos 468 Rocket 4.0 12:31:23 33° SW 12:33:34 59° WNW 12:38:48 10° N
ERS-2 2.3 12:32:21 10° SSE 12:35:58 70° ENE 12:37:40 30° N
GEOS 3 Rocket 4.0 12:31:10 10° SE 12:36:26 67° NE 12:40:17 19° NNW
Meteor PRIRODA 3.4 12:35:26 10° NNE 12:39:04 87° WNW 12:42:40 10° SSW
Cosmos 1980 3.8 12:37:04 10° SSW 12:42:43 81° ESE 12:48:23 10° NNE
Cosmos 921 Rocket 3.1 12:43:59 48° W 12:44:11 48° WNW 12:48:17 10° N
Cosmos 1937 Rocket 3.9 12:39:05 10° NNW 12:44:21 62° ENE 12:49:30 10° SSE
COSMO-SKYMED 1 2.5 12:40:38 10° S 12:44:55 63° WSW 12:47:20 25° NNW
Envisat 3.4 12:44:47 10° NNE 12:49:51 65° E 12:54:53 10° S
SJ 16-02 2.3 12:52:18 27° WSW 12:52:18 27° WSW 12:55:16 10° SSW
CZ-2C R/B 2.5 12:59:14 15° SW 13:02:13 35° SSE 13:05:48 10° E
CZ-4B R/B 3.1 12:59:57 10° N 13:03:17 36° WNW 13:06:41 10° SW
Cosmos 1544 Rocket 3.5 12:59:31 10° SSW 13:03:45 57° W 13:08:02 10° N
USA 276 3.1 13:05:16 28° WSW 13:05:40 29° SW 13:08:25 10° SSE
CZ-4B R/B 3.3 13:05:38 10° SW 13:06:46 16° SW 13:06:46 16° SW
Lacrosse 4 Rocket 2.6 13:06:29 10° S 13:10:27 46° ESE 13:14:35 10° NE
Meteor 1-16 Rocket 4.3 13:04:54 10° SSW 13:10:45 79° W 13:16:43 10° N
Cosmos 1703 3.6 13:07:43 10° N 13:11:37 65° E 13:15:28 10° SSE
Okean 1-7 Rocket 3.9 13:10:00 10° NNW 13:14:20 46° W 13:18:37 10° SSW
Cosmos 1340 3.1 13:11:13 10° N 13:14:56 62° E 13:18:39 10° SSE
Cosmos 540 Rocket 3.6 13:12:40 10° SW 13:17:35 47° WNW 13:22:32 10° N
NOSS 0 Rocket 4.2 13:11:47 10° SW 13:17:41 45° WNW 13:23:36 10° NNE
Lacrosse 5 rocket 3.0 13:15:52 10° NNW 13:19:05 25° NE 13:22:11 10° E
Cosmos 1689 Rocket 2.5 13:16:23 10° S 13:19:08 39° W 13:21:07 16° NW
BREEZE M DEB (TANK) 1.1 13:20:28 17° WSW 13:21:56 80° NW 13:25:06 10° NE
MOS 1 Rocket 3.9 13:18:03 10° SSW 13:22:50 39° W 13:27:24 10° NNW
Gbstr 26 Del rocket 4.5 13:15:24 10° SW 13:22:54 83° NW 13:31:06 10° NE
SAR-Lupe-4 4.2 13:21:17 10° SSW 13:24:33 34° W 13:27:51 10° NNW
Cosmos 44 Rocket 3.4 13:20:04 10° NNW 13:25:20 88° WSW 13:30:31 10° SSE
Cosmos 1626 Rocket 3.5 13:22:01 10° NNW 13:26:27 67° W 13:30:52 10° S
H-2A R/B 3.6 13:23:32 10° NNW 13:26:39 26° WNW 13:29:46 10° SW
Cosmos 2228 4.2 13:25:41 10° SSE 13:29:45 45° E 13:33:49 10° NNE
Cosmos 1455 Rocket 4.4 13:27:56 10° WSW 13:30:57 18° WNW 13:33:59 10° NNW
Cosmos 1400 Rocket 3.0 13:28:36 10° SSW 13:32:33 52° WNW 13:36:35 10° N
Atlas Centaur 2 3.8 13:26:28 10° WSW 13:34:18 50° S 13:42:25 10° ESE
Cosmos 1328 3.7 13:32:58 10° N 13:36:55 84° W 13:40:49 10° S
SL-4 R/B 1.9 13:35:59 10° SW 13:39:44 89° SE 13:43:50 10° NE
SL-19 R/B 4.3 13:35:57 10° N 13:39:51 54° WNW 13:43:14 10° SSW
SL-16 R/B 2.4 13:35:17 10° SSW 13:40:54 79° ESE 13:46:35 10° NNE
OAO 2 Rocket 3.6 13:38:07 10° W 13:42:57 60° S 13:47:49 10° ESE
Chandra Rocket (1) 3.6 13:41:29 10° SW 13:43:28 15° SSW 13:45:04 10° SSE
CZ-4B R/B 3.4 13:40:55 10° NNE 13:46:36 87° ESE 13:52:12 10° SSW
Cosmos 2278 Rocket 2.6 13:41:37 10° NW 13:46:57 43° WSW 13:52:15 10° S
NOSS 3-2 (A) 3.3 13:42:22 10° SSW 13:47:52 85° WNW 13:54:07 10° NNE
Cosmos 1758 Rocket 3.8 13:43:42 10° N 13:48:13 81° E 13:52:40 10° S
Cosmos 841 Rocket 4.3 13:44:02 10° WSW 13:48:22 27° WNW 13:52:44 10° N
H-2A R/B 2.7 13:44:26 10° N 13:48:50 58° WNW 13:53:15 10° SSW
Okean O Rocket 1.6 13:45:34 10° NNE 13:49:57 86° W 13:54:17 10° SSW
SMAP 3.1 13:45:36 10° N 13:50:12 62° WNW 13:54:47 10° SSW
PAYLOAD B 4.3 13:45:18 10° N 13:50:47 61° WNW 13:56:17 10° SSW
ATLAS CENTAUR R/B 1.0 13:48:24 10° SW 13:52:06 66° WNW 13:55:46 10° NNE
Spot 2 4.4 13:50:10 10° N 13:53:53 37° WNW 13:57:38 10° SW
Cosmos 2237 Rocket 3.0 13:49:29 10° WSW 13:54:19 28° WNW 13:59:11 10° N
Cosmos 1300 2.6 13:51:50 10° SSW 13:55:37 70° W 13:59:25 10° N
CZ-2C R/B 2.6 13:50:42 10° S 13:55:51 68° WSW 14:01:08 10° NNW
NOSS 3-2 (C) 3.8 13:51:32 10° SSW 13:56:56 65° ESE 14:03:01 10° NE
Cosmos 1943 Rocket 3.7 13:52:31 10° N 13:57:41 35° ENE 14:02:51 10° SE
